Milledgeville, GA

9:51 PM EST on December 07, 2019 (GMT -0500)
Baldwin County

Weather History for KMLJ - November, 2019

Change the Weather History Date:

Tuesday, November 19, 2019

  Actual Average (WUND) Record (WUND)
Temperature  
Mean Temperature 51 °F -  
Max Temperature 60 °F - - (-1)
Min Temperature 42 °F - - (-1)
Degree Days  
Heating Degree Days 14    
Growing Degree Days 1 (Base 50)    
Moisture  
Dew Point 42 °F    
Average Humidity 75    
Maximum Humidity 100    
Minimum Humidity 45    
Precipitation  
Precipitation 0.00 in - - ()
Sea Level Pressure  
Sea Level Pressure 29.89 in    
Wind  
Wind Speed 4 mph ()    
Max Wind Speed 12 mph    
Max Gust Speed 17 mph    
Visibility 10.0 miles    
Events      
Averages and records for this station are not official NWS values.
T = Trace of Precipitation, MM = Missing Value Source: Averaged Metar Reports

Daily Weather History Graph

Daily Weather History Graph

Search for Another Location

Airport or City:

Astronomy

Nov. 19, 2019 Rise Set
Actual Time 7:07 AM EST 5:29 PM EST
Civil Twilight 6:40 AM EST 5:55 PM EST
Nautical Twilight 6:10 AM EST 6:25 PM EST
Astronomical Twilight 5:41 AM EST 6:55 PM EST
Moon No Moon Rise 1:19 PM EST (11/19)
Length of Visible Light 11h 14m
Length of Day
10h 21m
Waning Gibbous, 52% of the Moon is Illuminated
Nov 19
Waning Gibbous
Nov 19
Last Quarter
Nov 26
New
Dec 4
First Quarter
Dec 12
Full

Hourly Weather History & Observations

Time (EST) Temp. Windchill Dew Point Humidity Pressure Visibility Wind Dir Wind Speed Gust Speed Precip Events Conditions
12:15 AM 46.4 °F - 41.0 °F 81% 29.82 in 10.0 mi Calm Calm - N/A   Clear
12:35 AM 46.4 °F 43.5 °F 39.2 °F 76% 29.82 in 10.0 mi WNW 5.8 mph - N/A   Clear
12:55 AM 46.4 °F 44.3 °F 39.2 °F 76% 29.82 in 10.0 mi WNW 4.6 mph - N/A   Clear
1:15 AM 44.6 °F 43.1 °F 41.0 °F 87% 29.82 in 10.0 mi WNW 3.5 mph - N/A   Clear
1:35 AM 44.6 °F - 39.2 °F 81% 29.81 in 10.0 mi Calm Calm - N/A   Clear
1:55 AM 44.6 °F - 39.2 °F 81% 29.81 in 10.0 mi Calm Calm - N/A   Clear
2:15 AM 44.6 °F - 41.0 °F 87% 29.82 in 10.0 mi Calm Calm - N/A   Clear
2:35 AM 44.6 °F 42.2 °F 39.2 °F 81% 29.82 in 10.0 mi NW 4.6 mph - N/A   Clear
2:55 AM 44.6 °F 41.4 °F 41.0 °F 87% 29.82 in 10.0 mi WNW 5.8 mph - N/A   Clear
3:15 AM 44.6 °F 43.1 °F 39.2 °F 81% 29.81 in 10.0 mi WNW 3.5 mph - N/A   Clear
3:35 AM 44.6 °F 42.2 °F 39.2 °F 81% 29.82 in 10.0 mi WNW 4.6 mph - N/A   Clear
3:55 AM 44.6 °F 40.7 °F 41.0 °F 87% 29.83 in 10.0 mi WNW 6.9 mph - N/A   Clear
4:15 AM 46.4 °F 43.5 °F 41.0 °F 81% 29.84 in 10.0 mi WNW 5.8 mph - N/A   Clear
4:35 AM 46.4 °F 42.4 °F 41.0 °F 81% 29.84 in 10.0 mi WNW 8.1 mph - N/A   Clear
4:55 AM 46.4 °F 44.3 °F 41.0 °F 81% 29.84 in 10.0 mi NW 4.6 mph - N/A   Scattered Clouds
5:15 AM 44.6 °F 43.1 °F 41.0 °F 87% 29.84 in 10.0 mi WNW 3.5 mph - N/A   Mostly Cloudy
5:35 AM 44.6 °F 43.1 °F 41.0 °F 87% 29.84 in 10.0 mi WNW 3.5 mph - N/A   Scattered Clouds
5:55 AM 42.8 °F - 41.0 °F 93% 29.84 in 10.0 mi Calm Calm - N/A   Scattered Clouds
6:15 AM 42.8 °F 40.1 °F 41.0 °F 93% 29.85 in 10.0 mi WNW 4.6 mph - N/A   Scattered Clouds
6:35 AM 44.6 °F 40.7 °F 41.0 °F 87% 29.85 in 10.0 mi WNW 6.9 mph - N/A   Mostly Cloudy
6:55 AM 44.6 °F 41.4 °F 41.0 °F 87% 29.85 in 10.0 mi WNW 5.8 mph - N/A   Mostly Cloudy
7:15 AM 44.6 °F 40.2 °F 41.0 °F 87% 29.86 in 10.0 mi WNW 8.1 mph - N/A   Scattered Clouds
7:35 AM 44.6 °F 41.4 °F 41.0 °F 87% 29.87 in 10.0 mi WNW 5.8 mph - N/A   Scattered Clouds
7:55 AM 44.6 °F 40.7 °F 41.0 °F 87% 29.88 in 10.0 mi WNW 6.9 mph - N/A   Mostly Cloudy
8:15 AM 44.6 °F 41.4 °F 41.0 °F 87% 29.88 in 10.0 mi WNW 5.8 mph - N/A   Scattered Clouds
8:35 AM 46.4 °F 42.9 °F 41.0 °F 81% 29.89 in 10.0 mi WNW 6.9 mph - N/A   Scattered Clouds
8:55 AM 48.2 °F - 41.0 °F 76% 29.89 in 10.0 mi WNW 6.9 mph - N/A   Scattered Clouds
9:15 AM 48.2 °F - 41.0 °F 76% 29.89 in 10.0 mi WNW 6.9 mph - N/A   Scattered Clouds
9:55 AM 50.0 °F - 41.0 °F 71% 29.91 in 10.0 mi NW 10.4 mph - N/A   Mostly Cloudy
10:15 AM 51.8 °F - 41.0 °F 67% 29.91 in 10.0 mi WNW 11.5 mph 17.3 mph N/A   Mostly Cloudy
10:35 AM 51.8 °F - 41.0 °F 67% 29.91 in 10.0 mi NW 10.4 mph - N/A   Mostly Cloudy
10:55 AM 53.6 °F - 41.0 °F 62% 29.90 in 10.0 mi NW 9.2 mph - N/A   Scattered Clouds
11:15 AM 53.6 °F - 41.0 °F 62% 29.91 in 10.0 mi West 6.9 mph - N/A   Mostly Cloudy
11:35 AM 55.4 °F - 39.2 °F 54% 29.91 in 10.0 mi NW 10.4 mph - N/A   Mostly Cloudy
11:55 AM 57.2 °F - 37.4 °F 48% 29.90 in 10.0 mi NW 10.4 mph 17.3 mph N/A   Mostly Cloudy
12:15 PM 59.0 °F - 39.2 °F 48% 29.90 in 10.0 mi WNW 11.5 mph - N/A   Mostly Cloudy
12:35 PM 57.2 °F - 39.2 °F 51% 29.90 in 10.0 mi WNW 8.1 mph - N/A   Overcast
12:55 PM 59.0 °F - 41.0 °F 51% 29.89 in 10.0 mi WNW 10.4 mph 16.1 mph N/A   Overcast
1:15 PM 59.0 °F - 41.0 °F 51% 29.88 in 10.0 mi NW 6.9 mph - N/A   Scattered Clouds
1:35 PM 60.8 °F - 41.0 °F 48% 29.88 in 10.0 mi WNW 8.1 mph - N/A   Clear
1:55 PM 60.8 °F - 41.0 °F 48% 29.87 in 10.0 mi West 8.1 mph - N/A   Clear
2:15 PM 60.8 °F - 41.0 °F 48% 29.86 in 10.0 mi WNW 9.2 mph - N/A   Clear
2:35 PM 60.8 °F - 41.0 °F 48% 29.86 in 10.0 mi NW 9.2 mph - N/A   Clear
2:55 PM 60.8 °F - 41.0 °F 48% 29.86 in 10.0 mi West 9.2 mph 17.3 mph N/A   Clear
3:15 PM 60.8 °F - 41.0 °F 48% 29.87 in 10.0 mi WSW 8.1 mph - N/A   Clear
3:35 PM 60.8 °F - 41.0 °F 48% 29.87 in 10.0 mi WNW 9.2 mph - N/A   Clear
3:55 PM 60.8 °F - 39.2 °F 45% 29.88 in 10.0 mi WNW 9.2 mph - N/A   Clear
4:15 PM 60.8 °F - 39.2 °F 45% 29.88 in 10.0 mi WNW 5.8 mph - N/A   Clear
4:35 PM 60.8 °F - 41.0 °F 48% 29.89 in 10.0 mi WNW 8.1 mph - N/A   Clear
4:55 PM 59.0 °F - 41.0 °F 51% 29.89 in 10.0 mi Calm Calm - N/A   Clear
5:15 PM 55.4 °F - 42.8 °F 63% 29.89 in 10.0 mi Calm Calm - N/A   Clear
5:35 PM 53.6 °F - 44.6 °F 72% 29.90 in 10.0 mi Calm Calm - N/A   Clear
5:55 PM 51.8 °F - 44.6 °F 76% 29.91 in 10.0 mi Calm Calm - N/A   Clear
6:15 PM 51.8 °F - 44.6 °F 76% 29.92 in 10.0 mi Calm Calm - N/A   Clear
6:35 PM 50.0 °F - 44.6 °F 82% 29.92 in 10.0 mi Calm Calm - N/A   Clear
6:55 PM 50.0 °F - 42.8 °F 76% 29.93 in 10.0 mi Calm Calm - N/A   Clear
7:15 PM 48.2 °F - 42.8 °F 82% 29.93 in 10.0 mi Calm Calm - N/A   Clear
7:35 PM 46.4 °F - 44.6 °F 93% 29.94 in 10.0 mi Calm Calm - N/A   Clear
7:55 PM 46.4 °F - 44.6 °F 93% 29.94 in 10.0 mi Calm Calm - N/A   Clear
8:15 PM 46.4 °F - 44.6 °F 93% 29.95 in 10.0 mi Calm Calm - N/A   Clear
8:35 PM 46.4 °F - 44.6 °F 93% 29.95 in 10.0 mi Calm Calm - N/A   Clear
8:55 PM 46.4 °F 45.2 °F 44.6 °F 93% 29.96 in 10.0 mi West 3.5 mph - N/A   Clear
9:15 PM 48.2 °F - 42.8 °F 82% 29.97 in 10.0 mi Calm Calm - N/A   Clear
9:35 PM 48.2 °F - 42.8 °F 82% 29.97 in 10.0 mi Calm Calm - N/A   Scattered Clouds
9:55 PM 48.2 °F - 44.6 °F 87% 29.97 in 10.0 mi Calm Calm - N/A   Mostly Cloudy
10:15 PM 48.2 °F - 44.6 °F 87% 29.97 in 10.0 mi Calm Calm - N/A   Scattered Clouds
10:35 PM 46.4 °F - 44.6 °F 93% 29.97 in 10.0 mi Calm Calm - N/A   Scattered Clouds
10:55 PM 46.4 °F - 42.8 °F 87% 29.97 in 10.0 mi Calm Calm - N/A   Clear
11:15 PM 44.6 °F - 42.8 °F 93% 29.97 in 10.0 mi Calm Calm - N/A   Clear
11:35 PM 44.6 °F - 44.6 °F 100% 29.97 in 10.0 mi Calm Calm - N/A   Clear
11:55 PM 44.6 °F - 44.6 °F 100% 29.97 in 10.0 mi Calm Calm - N/A   Clear